Kezdőlap
METAR-TAF:

METAR-TAF

Repülőterek :

Olivia Regional Airport

Olivia, Minnesota, Amerikai Egyesült Államok

földrajzi szélesség: 44-46-43N, földrajzi hosszúság: 095-01-58W, magasság: 328 m

Jelenlegi meteorológiai megfigyelések

A jelentés 19 perccel ezelõtt készült, 15:35 UTC
Délkeleti szél 10 kt
Hőmérséklet 7°C
Páratartalom 87%
Légköri nyomás 1011 hPa
Látótávolság: 16.1 km
Borult 4100 lábon

METAR: KOVL 061535Z AUTO 14010KT 10SM OVC041 07/05 A2986 RMK AO2

Idő: 10:54 (15:54 UTC)


TAF: hiányzik

Meteorológiai megfigyelések és előrejelzések több, mint 4000 repülőtéren (METAR és TAF jelentéseket).

A térképen piros és sárga pontok jelzik az elérhető meteorológiai állomásokat.

Mozgassa az egeret a pont fölött, hogy megjelenjen az állomás neve.

Azután kattintson az időjárási megfigyelések és előrejelzések megtekintéséhez.

A térkép megváltoztatása: kattintson a fekete keresztel jelölt zöld gombra ráközelítéshez, a vonallal jelölt zöld gombra távolításhoz, vagy a zöld nyilakra a szomszédos térképek eléréséhez.


METAR-TAF: